Simultaneous Nadir Overpasses (SNOs) Predictions

Prediction of SNOs between GOES-16 and METOP-C Satellite Orbit:

Table of predicted SNOs for the next 14.0 days since TLE Epoch: 7/10/2020
Index Date Time (GOES-16) GOES-16 Lat,Lon METOP-C Lat,Lon Distance(km) Time Diff (sec)
1 07/11/2020 02:14:12 0.02, -75.19 0.96, -71.15 461.66 80
2 07/12/2020 14:33:05 -0.02, -75.23 0.06, -75.71 55.11 80
3 07/15/2020 02:34:04 0.02, -75.23 0.01, -75.31 9.23 80
4 07/17/2020 14:29:37 -0.00, -75.27 -0.10, -74.88 45.29 80
5 07/19/2020 02:51:17 -0.00, -75.27 -0.93, -79.47 478.41 80
6 07/20/2020 02:27:57 0.00, -75.28 0.18, -74.47 91.82 80
7 07/21/2020 14:49:29 -0.00, -75.32 0.83, -79.04 424.14 80
8 07/22/2020 14:26:10 -0.01, -75.33 -0.28, -74.04 146.40 80
9 07/24/2020 02:47:50 0.02, -75.34 -0.70, -78.65 376.64 80
